Showing default

KUIPER-00029, 63742

Orbit data source: Space-Track

KUIPER-00029, 63742 is a payload satellite owned by Kuiper Systems (US) in LEO that was launched on Mon, 28 Apr 2025 UTC via an ATLAS V 551 launch vehicle from the Air Force Eastern Test Range (AFETR). Payload-class satellites include a variety of spacecraft equipped with specific instruments for various scientific and technological missions. These include communications satellites like Starlink; space stations such as the ISS; scientific satellites like the Hubble; Earth observation satellites from companies like Planet Labs, Umbra, and HawkEye 360; GPS; miniature CubeSats for education and research; and military/defense satellites.

Loading next visibility...
Identifier
63742, 2025-088U
Orbit
LEO
Country
Flag of USUS
Related business
Manufacturer
Kuiper Systems
Mission
Operational Commercial Communications
Bus & Motor
KUIPER, Unknown motor
Mass
~490 kg wet, ~490 kg dry
Launch date (UTC)
2025-04-28 (8 months ago)
Launch vehicle
ATLAS V 551
Launch site
Air Force Eastern Test Range (AFETR)
Object type
Payload
Rocket body
Debris
Shape & HBR
Box + 2 Pan, 3.4 m
Radar Cross Section
2.326 m², Large (>1 m²)

Expand to show TLE details & history
Last TLE update: 1 day ago

TLE from 1 day ago
0 KUIPER-00029
1 63742U 25088U   25348.34466313 -.00000792  00000-0 -74536-4 0  9996
2 63742  51.9004 108.7090 0008950 196.4492 163.6181 14.79934834 34976
Epoch: 2025-12-14T08:16Z
TLE epoch observation values (Epoch: 2025-12-14T08:16:18.894Z)
Latitude
-0.00003°
Longitude
-98.62867°
Altitude
636.294 km
Speed
7.538 km/s
True Right ascension
07h 14m 50s
True Declination
0° 00' 00"
Sunlit
Object was in full shadow at epoch
Visualization orbit readout
Latitude
Unknown
Longitude
Unknown
Altitude
Unknown
Speed
Unknown
Apparent Right ascension
Unknown
Apparent Declination
Unknown
Sunlit
N/A
Visualization observer readout
Local Sidereal Time
13:18:23
Azimuth
Unknown
Elevation
Unknown
Doppler factor
Unknown
Orbital elements
Apogee altitude
636.253 km
Perigee altitude
623.709 km
Semi-major axis
7,008.118 km
Eccentricity
0.0009
Inclination
51.9004°
RAAN
108.709°
Arg. of periapsis
196.4492°
True anomaly
163.64699°
Mean anomaly
163.6181°
Eccentric anomaly
163.63255°
Mean motion
3.69948 °/min
Orbital period
97.31 mins
BSTAR
-0.000074536
Loading maneuver chart data...
Computing Atmospheric mass density...
Loading historical data...
Loading historical data...
Loading historical data...
Loading historical data...
Loading historical data...
Loading historical data...
Loading historical data...

Documentation

Showing up to 5 results
|